Voltar ao catálogo

THORAD AGENA D DEB

AtivoPO
NORAD 14466·DEBRIS·🇺🇸 United States

Lançado Apr 8, 1970 de Vandenberg Space Force Base

Loading…

Próximas Passagens (próximas 24 horas)

TLE

AtualizadoSource: Space-Track

Época: Sep 14, 2026, 20:14 UTC

1 14466U 70025NS  26257.84332179  .00004988  00000-0  10188-2 0  9993
2 14466  99.9703 107.0711 0044061   5.9704 354.2007 14.60873343325502

Acompanhe THORAD AGENA D DEB em tempo real com AllMySat

Download on the App Store